EW4245 Weather Reports


Display with metric or nautical units.
time (UTC)temp
F
wind
direction
speed
MPH
gust
MPH
rain 1hr
in
rain 24hr
in
rain mn
in
humidity
%
barometer
mb
20200714140011 80 115 0.0 1.0 0.00 0.00 0.00 79 1014.4
20200714135512 79 76 0.0 1.0 0.00 0.00 0.00 82 1014.3
20200714135014 78 172 0.0 1.0 0.00 0.00 0.00 83 1014.0
20200714134511 78 193 0.0 1.0 0.00 0.00 0.00 84 1013.8
20200714134010 78 200 0.0 1.0 0.00 0.00 0.00 86 1013.7
20200714133507 77 77 0.0 1.0 0.00 0.00 0.00 87 1013.5
20200714133006 77 8 0.0 1.0 0.00 0.00 0.00 87 1013.5
20200714132504 76 329 0.0 1.0 0.00 0.00 0.00 88 1013.4
20200714132001 76 41 0.0 1.0 0.00 0.00 0.00 88 1013.3
20200714131503 76 174 0.0 1.0 0.00 0.00 0.00 89 1013.2
20200714131002 76 319 0.0 1.0 0.00 0.00 0.00 90 1013.1
20200714130500 76 60 0.0 2.0 0.00 0.00 0.00 90 1013.0
20200714130000 76 77 0.0 2.0 0.00 0.00 0.00 90 1012.8
20200714125500 75 96 0.0 1.0 0.00 0.00 0.00 91 1012.8
20200714124959 75 26 0.0 2.0 0.00 0.00 0.00 91 1012.7
20200714124456 75 79 0.0 2.0 0.00 0.00 0.00 91 1012.8
20200714123955 75 149 0.0 1.0 0.00 0.00 0.00 91 1012.8
20200714123449 75 23 0.0 1.0 0.00 0.00 0.00 92 1012.7
20200714122950 75 242 0.0 1.0 0.00 0.00 0.00 92 1012.7
20200714122449 75 114 0.0 1.0 0.00 0.00 0.00 92 1012.7
20200714121947 75 37 0.0 1.0 0.00 0.00 0.00 92 1012.7
20200714121448 75 64 0.0 4.0 0.00 0.00 0.00 92 1012.5
20200714120949 74 274 0.0 4.0 0.00 0.00 0.00 92 1012.4
20200714120447 74 256 0.0 1.0 0.00 0.00 0.00 92 1012.3
20200714115944 74 256 0.0 1.0 0.00 0.00 0.00 91 1012.2
20200714115441 74 23 0.0 0.0 0.00 0.00 0.00 91 1012.1
20200714114942 74 103 0.0 1.0 0.00 0.00 0.00 91 1012.0
20200714114442 74 98 0.0 1.0 0.00 0.00 0.00 91 1012.0
20200714113940 75 79 0.0 1.0 0.00 0.00 0.00 91 1011.9
20200714113437 75 82 0.0 1.0 0.00 0.00 0.00 91 1011.8
20200714112939 75 89 0.0 1.0 0.00 0.00 0.00 91 1011.8
20200714112439 75 127 0.0 1.0 0.00 0.00 0.00 91 1011.8
20200714111936 75 74 0.0 1.0 0.00 0.00 0.00 91 1011.8
20200714111435 75 105 0.0 1.0 0.00 0.00 0.00 91 1011.8
20200714110933 75 98 0.0 1.0 0.00 0.00 0.00 91 1011.8
20200714110429 75 326 0.0 1.0 0.00 0.00 0.00 91 1011.8
20200714105926 75 322 0.0 1.0 0.00 0.00 0.00 91 1011.8
20200714105426 75 323 0.0 1.0 0.00 0.00 0.00 91 1011.8
20200714104926 75 320 0.0 1.0 0.00 0.00 0.00 91 1011.9
20200714104425 75 352 0.0 1.0 0.00 0.00 0.00 91 1011.8
20200714103928 75 77 0.0 1.0 0.00 0.00 0.00 91 1011.9
20200714103419 75 22 0.0 1.0 0.00 0.00 0.00 91 1011.8
20200714102920 75 107 0.0 1.0 0.00 0.00 0.00 91 1011.8
20200714102420 76 176 0.0 1.0 0.00 0.00 0.00 90 1011.8
20200714101919 76 190 0.0 1.0 0.00 0.00 0.00 90 1011.8
20200714101419 76 243 0.0 1.0 0.00 0.00 0.00 90 1011.7
20200714100919 76 293 0.0 2.0 0.00 0.00 0.00 90 1011.7
20200714100411 76 92 0.0 2.0 0.00 0.00 0.00 90 1011.8
20200714095911 76 332 0.0 1.0 0.00 0.00 0.00 90 1011.8
20200714095409 76 83 0.0 2.0 0.00 0.00 0.00 90 1011.8
20200714094910 76 243 0.0 2.0 0.00 0.00 0.00 90 1011.8
20200714094408 76 339 0.0 2.0 0.00 0.00 0.00 89 1011.9
20200714093907 76 46 0.0 2.0 0.00 0.00 0.00 89 1011.8
20200714093403 76 283 0.0 1.0 0.00 0.00 0.00 89 1011.8
20200714092903 77 204 0.0 1.0 0.00 0.00 0.00 89 1011.7
20200714092401 77 263 0.0 1.0 0.00 0.00 0.00 88 1011.6
20200714091903 77 27 0.0 1.0 0.00 0.00 0.00 88 1011.5
20200714091359 77 245 0.0 3.0 0.00 0.00 0.00 87 1011.4
20200714090900 77 245 0.0 3.0 0.00 0.00 0.00 87 1011.6
20200714090353 77 226 0.0 1.0 0.00 0.00 0.00 87 1011.5
20200714085855 77 1 0.0 3.0 0.00 0.00 0.00 86 1011.6
20200714085354 77 318 0.0 3.0 0.00 0.00 0.00 86 1011.7
20200714084855 78 146 0.0 1.0 0.00 0.00 0.00 85 1011.8
20200714084352 78 204 0.0 4.0 0.00 0.00 0.00 85 1011.9
20200714083852 78 155 0.0 4.0 0.00 0.00 0.00 84 1011.9
20200714083347 78 169 0.0 1.0 0.00 0.00 0.00 84 1011.9
20200714082845 78 86 0.0 1.0 0.00 0.00 0.00 83 1011.9
20200714082343 78 40 0.0 1.0 0.00 0.00 0.00 83 1011.9
20200714081841 78 128 0.0 1.0 0.00 0.00 0.00 82 1012.0
20200714081340 78 223 0.0 1.0 0.00 0.00 0.00 81 1012.1
20200714080833 78 50 0.0 2.0 0.00 0.00 0.00 81 1012.2
20200714080333 79 12 0.0 2.0 0.00 0.00 0.00 80 1012.2
20200714075831 79 232 0.0 2.0 0.00 0.00 0.00 80 1012.3
20200714075329 79 68 0.0 2.0 0.00 0.00 0.00 79 1012.3
20200714074828 79 351 0.0 1.0 0.00 0.00 0.00 79 1012.4
20200714074327 79 122 0.0 1.0 0.00 0.00 0.00 78 1012.4
20200714073823 79 32 0.0 1.0 0.00 0.00 0.00 78 1012.4
20200714073322 80 341 0.0 1.0 0.00 0.00 0.00 77 1012.4
20200714072824 80 19 0.0 1.0 0.00 0.00 0.00 77 1012.5
20200714072323 80 57 0.0 1.0 0.00 0.00 0.00 77 1012.5
20200714071822 80 67 0.0 1.0 0.00 0.00 0.00 76 1012.5
20200714071322 80 65 0.0 1.0 0.00 0.00 0.00 76 1012.5
20200714070816 80 105 0.0 1.0 0.00 0.00 0.00 75 1012.5
20200714070316 80 94 0.0 1.0 0.00 0.00 0.00 75 1012.4
20200714065817 80 157 0.0 1.0 0.00 0.00 0.00 74 1012.5
20200714065317 81 144 0.0 1.0 0.00 0.00 0.00 74 1012.4
20200714064816 81 337 0.0 1.0 0.00 0.00 0.00 73 1012.4
20200714064316 81 74 0.0 1.0 0.00 0.00 0.00 72 1012.4
20200714063809 81 139 0.0 2.0 0.00 0.00 0.00 71 1012.5
20200714063313 81 67 0.0 2.0 0.00 0.00 0.00 71 1012.5
20200714062811 82 217 0.0 1.0 0.00 0.00 0.00 70 1012.5
20200714062310 82 229 0.0 2.0 0.00 0.00 0.00 70 1012.5
20200714061815 82 294 0.0 3.0 0.00 0.00 0.00 69 1012.5
20200714061811 82 339 0.0 3.0 0.00 0.00 0.00 69 1012.5
20200714060807 82 126 0.0 1.0 0.00 0.00 0.00 68 1012.7
20200714060308 83 262 0.0 1.0 0.00 0.00 0.00 67 1012.5
20200714055807 83 201 0.0 1.0 0.00 0.00 0.00 67 1012.7
20200714055306 83 184 0.0 1.0 0.00 0.00 0.00 66 1012.7
20200714054804 83 117 0.0 2.0 0.00 0.00 0.00 65 1012.5
20200714054304 84 141 0.0 2.0 0.00 0.00 0.00 64 1012.5
20200714053757 84 72 0.0 1.0 0.00 0.00 0.00 63 1012.5
20200714053257 84 104 0.0 1.0 0.00 0.00 0.00 62 1012.5
20200714052758 84 70 0.0 3.0 0.00 0.00 0.00 62 1012.4
20200714052259 85 223 0.0 3.0 0.00 0.00 0.00 61 1012.5
20200714051801 85 54 0.0 2.0 0.00 0.00 0.00 60 1012.4
20200714051258 85 29 0.0 1.0 0.00 0.00 0.00 60 1012.5
20200714050752 85 13 0.0 2.0 0.00 0.00 0.00 59 1012.4
20200714050249 85 139 0.0 2.0 0.00 0.00 0.00 59 1012.4
20200714045748 86 150 0.0 2.0 0.00 0.00 0.00 58 1012.4
20200714045250 86 15 0.0 2.0 0.00 0.00 0.00 57 1012.4
20200714044750 86 344 0.0 2.0 0.00 0.00 0.00 57 1012.2
20200714044247 86 224 0.0 3.0 0.00 0.00 0.00 57 1012.3
20200714043743 86 152 0.0 3.0 0.00 0.00 0.00 57 1012.2
20200714043242 87 18 0.0 2.0 0.00 0.00 0.00 57 1012.1
20200714042742 87 19 0.0 1.0 0.00 0.00 0.00 58 1012.2
20200714042242 87 201 0.0 1.0 0.00 0.00 0.00 58 1012.2
20200714041743 87 37 0.0 3.0 0.00 0.00 0.00 58 1012.1
20200714041242 87 143 0.0 3.0 0.00 0.00 0.00 58 1012.0
20200714040742 88 72 0.0 4.0 0.00 0.00 0.00 58 1011.9
20200714040241 88 298 0.0 4.0 0.00 0.00 0.00 57 1011.8
20200714035743 88 50 0.0 4.0 0.00 0.00 0.00 57 1011.8
20200714035238 88 350 0.0 4.0 0.00 0.00 0.00 56 1011.7
20200714034739 89 342 0.0 4.0 0.00 0.00 0.00 55 1011.4
20200714034238 89 13 0.0 1.0 0.00 0.00 0.00 55 1011.4
20200714033802 89 40 0.0 0.0 0.00 0.00 0.00 54 1011.2
20200714032714 90 110 0.0 2.0 0.00 0.00 0.00 53 1011.2
20200714032215 90 176 0.0 2.0 0.00 0.00 0.00 52 1011.1
20200714031709 90 37 0.0 2.0 0.00 0.00 0.00 51 1011.0
20200714031208 90 342 0.0 2.0 0.00 0.00 0.00 51 1010.9
20200714030725 91 340 0.0 2.0 0.00 0.00 0.00 50 1010.8
20200714030209 91 15 0.0 2.0 0.00 0.00 0.00 49 1010.7
20200714025708 91 72 0.0 5.0 0.00 0.00 0.00 48 1010.6
20200714025208 92 61 0.0 5.0 0.00 0.00 0.00 47 1010.5
20200714024710 92 53 0.0 3.0 0.00 0.00 0.00 46 1010.5
20200714024210 92 353 0.0 1.0 0.00 0.00 0.00 45 1010.4
20200714023709 92 215 0.0 3.0 0.00 0.00 0.00 43 1010.5
20200714023204 93 290 0.0 3.0 0.00 0.00 0.00 41 1010.4
20200714022706 93 26 0.0 2.0 0.00 0.00 0.00 40 1010.3
20200714022204 93 20 0.0 1.0 0.00 0.00 0.00 37 1010.3
20200714021704 93 110 0.0 1.0 0.00 0.00 0.00 36 1010.2
20200714021205 93 329 0.0 1.0 0.00 0.00 0.00 35 1010.2
20200714020707 93 65 0.0 1.0 0.00 0.00 0.00 35 1010.1
20200714020159 94 39 0.0 1.0 0.00 0.00 0.00 35 1010.0
20200714015701 94 86 0.0 1.0 0.00 0.00 0.00 34 1010.0
20200714015202 94 101 0.0 1.0 0.00 0.00 0.00 34 1010.1
20200714014659 94 30 0.0 0.0 0.00 0.00 0.00 33 1010.0
20200714014137 95 162 0.0 1.0 0.00 0.00 0.00 32 1010.1
20200714013639 95 36 0.0 1.0 0.00 0.00 0.00 32 1010.1
20200714013137 96 290 0.0 1.0 0.00 0.00 0.00 32 1009.9
20200714012637 96 289 0.0 2.0 0.00 0.00 0.00 31 1010.0
20200714012137 96 146 0.0 2.0 0.00 0.00 0.00 31 1010.0
20200714011634 97 81 0.0 1.0 0.00 0.00 0.00 30 1010.0
20200714011137 97 356 0.0 1.0 0.00 0.00 0.00 30 1010.0
20200714010635 97 136 0.0 3.0 0.00 0.00 0.00 30 1010.0
20200714010133 97 54 0.0 3.0 0.00 0.00 0.00 30 1010.0
20200714005635 98 344 0.0 0.0 0.00 0.00 0.00 30 1010.0
20200714003419 99 163 0.0 1.0 0.00 0.00 0.00 29 1010.0
20200714002920 99 285 0.0 4.0 0.00 0.00 0.00 29 1009.9
20200714002421 100 101 0.0 4.0 0.00 0.00 0.00 29 1009.9
20200714001920 100 49 0.0 4.0 0.00 0.00 0.00 29 1009.9
20200714001420 100 101 0.0 4.0 0.00 0.00 0.00 29 1009.9
20200714000921 101 94 0.0 4.0 0.00 0.00 0.00 29 1009.9
20200714000415 101 11 0.0 4.0 0.00 0.00 0.00 28 1009.9
20200713235916 101 51 0.0 1.0 0.00 0.00 0.00 28 1010.0
20200713235418 101 33 0.0 1.0 0.00 0.00 0.00 28 1010.0
20200713234917 102 56 0.0 4.0 0.00 0.00 0.00 28 1010.0
20200713234415 102 98 0.0 4.0 0.00 0.00 0.00 28 1010.0
20200713233918 102 129 0.0 3.0 0.00 0.00 0.00 26 1010.0
20200713233415 103 12 0.0 3.0 0.00 0.00 0.00 26 1010.1
20200713232915 103 49 0.0 3.0 0.00 0.00 0.00 26 1010.1
20200713232415 103 308 0.0 2.0 0.00 0.00 0.00 26 1010.0
20200713231915 104 43 0.0 1.0 0.00 0.00 0.00 25 1010.0
20200713231414 104 103 0.0 3.0 0.00 0.00 0.00 25 1010.1
20200713230915 104 34 0.0 4.0 0.00 0.00 0.00 25 1010.1
20200713230409 105 96 0.0 4.0 0.00 0.00 0.00 25 1010.1
20200713225905 105 103 0.0 3.0 0.00 0.00 0.00 25 1010.1
20200713225405 106 135 0.0 5.0 0.00 0.00 0.00 24 1010.1
20200713224904 107 354 0.0 5.0 0.00 0.00 0.00 24 1010.2
20200713224404 107 304 0.0 3.0 0.00 0.00 0.00 24 1010.2
20200713223904 107 153 0.0 1.0 0.00 0.00 0.00 24 1010.2
20200713223405 107 59 0.0 2.0 0.00 0.00 0.00 24 1010.1
20200713222859 108 101 0.0 2.0 0.00 0.00 0.00 24 1010.2
20200713222400 108 70 0.0 2.0 0.00 0.00 0.00 24 1010.2
20200713221900 108 267 0.0 3.0 0.00 0.00 0.00 24 1010.3
20200713221404 109 23 0.0 3.0 0.00 0.00 0.00 24 1010.4
20200713220901 109 249 0.0 2.0 0.00 0.00 0.00 25 1010.4
20200713220405 109 65 0.0 2.0 0.00 0.00 0.00 25 1010.3
20200713215856 109 89 0.0 3.0 0.00 0.00 0.00 26 1010.4
20200713215402 109 89 0.0 3.0 0.00 0.00 0.00 26 1010.4
20200713214859 109 110 0.0 3.0 0.00 0.00 0.00 26 1010.4
20200713214355 109 34 0.0 4.0 0.00 0.00 0.00 26 1010.4
20200713213911 109 131 0.0 4.0 0.00 0.00 0.00 26 1010.4
20200713213358 109 205 0.0 3.0 0.00 0.00 0.00 26 1010.4
20200713212852 109 30 0.0 2.0 0.00 0.00 0.00 27 1010.4
20200713212353 109 72 0.0 2.0 0.00 0.00 0.00 27 1010.5
20200713211906 109 118 0.0 1.0 0.00 0.00 0.00 27 1010.5
20200713211404 108 82 0.0 0.0 0.00 0.00 0.00 28 1010.6